Milford Lake Weather Center

Moon Phase Calendar



Milford Lake Water Level
Online Cameras

 


      

Current Conditions in Fort Riley North
10/27/2021 7:56:11 PM

53°F
Feels Like 52
Clouds
Humidity
94%
Pressure
29.56"
Wind
16.1 mph (N)
Dew Point
51°F
UV Index
0/10 (Low)
Visibility
6 mi

Hourly Forecast

Date & Time Wed, Oct 27
7:00 PM
Wed, Oct 27
8:00 PM
Wed, Oct 27
9:00 PM
Wed, Oct 27
10:00 PM
Wed, Oct 27
11:00 PM
Thu, Oct 28
12:00 AM
Thu, Oct 28
1:00 AM
Thu, Oct 28
2:00 AM
Thu, Oct 28
3:00 AM
Thu, Oct 28
4:00 AM
Thu, Oct 28
5:00 AM
Thu, Oct 28
6:00 AM
Thu, Oct 28
7:00 AM
Thu, Oct 28
8:00 AM
Thu, Oct 28
9:00 AM
Thu, Oct 28
10:00 AM
Thu, Oct 28
11:00 AM
Thu, Oct 28
12:00 PM
Thu, Oct 28
1:00 PM
Thu, Oct 28
2:00 PM
Thu, Oct 28
3:00 PM
Thu, Oct 28
4:00 PM
Thu, Oct 28
5:00 PM
Thu, Oct 28
6:00 PM
Thu, Oct 28
7:00 PM
Thu, Oct 28
8:00 PM
Thu, Oct 28
9:00 PM
Thu, Oct 28
10:00 PM
Thu, Oct 28
11:00 PM
Fri, Oct 29
12:00 AM
Fri, Oct 29
1:00 AM
Fri, Oct 29
2:00 AM
Fri, Oct 29
3:00 AM
Fri, Oct 29
4:00 AM
Fri, Oct 29
5:00 AM
Fri, Oct 29
6:00 AM
Fri, Oct 29
7:00 AM
Fri, Oct 29
8:00 AM
Fri, Oct 29
9:00 AM
Fri, Oct 29
10:00 AM
Fri, Oct 29
11:00 AM
Fri, Oct 29
12:00 PM
Fri, Oct 29
1:00 PM
Fri, Oct 29
2:00 PM
Fri, Oct 29
3:00 PM
Fri, Oct 29
4:00 PM
Fri, Oct 29
5:00 PM
Fri, Oct 29
6:00 PM
Condition
Rain

Clouds

Rain

Rain

Rain

Rain

Rain

Rain

Rain

Rain

Rain

Rain

Rain

Clouds

Clouds

Clouds

Clouds

Clouds

Clouds

Clouds

Clouds

Clouds

Clouds

Clouds

Clouds

Clear

Clear

Clear

Clear

Clear

Clear

Clear

Clear

Clear

Clear

Clear

Clear

Clear

Clear

Clear

Clear

Clear

Clear

Clear

Clear

Clear

Clear

Clear
Temperature 53°F53°F53°F52°F51°F51°F50°F50°F50°F50°F50°F50°F49°F49°F49°F50°F52°F54°F57°F58°F59°F59°F58°F56°F54°F53°F53°F52°F51°F51°F50°F49°F49°F48°F47°F47°F46°F46°F47°F50°F53°F56°F58°F60°F60°F60°F59°F56°F
Feels Like 52°F52°F52°F51°F50°F50°F42°F41°F49°F48°F42°F42°F42°F41°F42°F48°F50°F52°F54°F56°F57°F57°F56°F53°F51°F51°F50°F49°F49°F48°F43°F42°F42°F41°F40°F39°F39°F38°F40°F43°F50°F53°F55°F57°F57°F57°F56°F53°F
Cloudiness 92%90%92%94%96%98%100%100%100%100%100%100%100%100%100%100%100%100%100%100%100%96%80%67%57%0%0%0%0%0%0%0%0%0%0%0%0%0%0%0%0%0%0%0%0%0%0%0%
Visibility 6 mi6 mi6 mi6 mi6 mi5 mi6 mi6 mi6 mi6 mi6 mi6 mi6 mi6 mi6 mi6 mi6 mi6 mi6 mi6 mi6 mi6 mi6 mi6 mi6 mi6 mi6 mi6 mi6 mi6 mi6 mi6 mi6 mi6 mi6 mi6 mi6 mi6 mi6 mi6 mi6 mi6 mi6 mi6 mi6 mi6 mi6 mi6 mi
Precipitation 100%58%62%74%89%93%93%91%91%85%85%84%84%44%42%34%26%26%24%0%0%0%0%0%0%0%0%0%0%0%0%0%0%0%0%0%0%0%0%0%0%0%0%0%0%0%0%0%
Humidity 93%94%92%91%89%88%87%83%75%74%74%73%73%72%70%66%61%56%51%47%45%44%44%46%49%51%52%51%50%51%52%54%56%57%59%60%61%62%60%55%49%43%39%35%32%31%35%40%
Dew Point 51°F51°F50°F49°F48°F47°F46°F45°F43°F42°F42°F41°F41°F40°F40°F39°F39°F39°F39°F38°F38°F38°F36°F35°F35°F36°F35°F35°F34°F33°F33°F33°F34°F34°F34°F34°F33°F33°F34°F34°F34°F34°F33°F32°F30°F30°F31°F31°F
Pressure 29.56"29.56"29.56"29.56"29.59"29.62"29.59"29.62"29.62"29.62"29.65"29.68"29.71"29.71"29.74"29.77"29.77"29.77"29.77"29.74"29.74"29.77"29.77"29.8"29.83"29.85"29.88"29.91"29.91"29.91"29.94"29.94"29.97"29.97"29.97"29.97"30"30.03"30.03"30.03"30.03"30"29.97"29.94"29.94"29.94"29.94"29.94"
Wind Speed 22 mph23.7 mph24.8 mph26.4 mph28.2 mph28.5 mph29.7 mph31.4 mph34 mph29.7 mph28 mph27 mph26.1 mph25.7 mph25.1 mph26 mph26.7 mph26.4 mph26.9 mph27.8 mph27.4 mph27.1 mph26.3 mph25.8 mph24.7 mph23.8 mph23.7 mph23.7 mph23.3 mph23.2 mph22.7 mph22.3 mph21.9 mph21 mph20 mph19.1 mph18.5 mph18.2 mph18.3 mph20.3 mph21.6 mph21.2 mph20.9 mph20.5 mph20 mph19.1 mph15.5 mph12.2 mph
Wind
Direction
342°
NNW
342°
NNW
342°
NNW
344°
NNW
346°
NNW
348°
NNW
348°
NNW
349°
N
348°
NNW
348°
NNW
344°
NNW
342°
NNW
345°
NNW
344°
NNW
344°
NNW
342°
NNW
343°
NNW
345°
NNW
343°
NNW
343°
NNW
344°
NNW
345°
NNW
345°
NNW
345°
NNW
347°
NNW
346°
NNW
346°
NNW
344°
NNW
342°
NNW
341°
NNW
342°
NNW
340°
NNW
339°
NNW
340°
NNW
339°
NNW
339°
NNW
339°
NNW
339°
NNW
340°
NNW
343°
NNW
351°
N
352°
N
353°
N
352°
N
349°
N
350°
N
352°
N
355°
N

Daily Forecast

Date High Low Precip. Humidity
Today
Oct 27

Rain
61 °F
51 °F
100%
93%
Thursday
Oct 28

Rain
59 °F
49 °F
93%
51%
Friday
Oct 29

Clear
60 °F
46 °F
0%
39%
Saturday
Oct 30

Clear
65 °F
41 °F
0%
31%
Sunday
Oct 31

Clouds
55 °F
46 °F
0%
51%
Monday
Nov 1

Rain
45 °F
38 °F
100%
59%
Tuesday
Nov 2

Rain
48 °F
35 °F
100%
55%
Wednesday
Nov 3

Rain
48 °F
36 °F
27%
54%
Thursday
Nov 4

Rain
42 °F
29 °F
57%
39%
Friday
Nov 5

Clouds
41 °F
26 °F
0%
34%
Saturday
Nov 6

Snow
34 °F
27 °F
100%
99%
Sunday
Nov 7

Clouds
45 °F
22 °F
0%
95%
Monday
Nov 8

Clouds
63 °F
40 °F
0%
73%
Tuesday
Nov 9

Clouds
68 °F
52 °F
0%
61%
Wednesday
Nov 10

Clouds
60 °F
45 °F
0%
62%
Thursday
Nov 11

Clear
57 °F
38 °F
0%
35%

Temperature 8-14 Day Outlook



Precipitation 8-14 Day Outlook




Quick Links
Milford Lake News
Milford Lake Photos
Milford Lake Videos




About Us
Contact Us
Site Map
Search Site
Advertise With Us
   
Milford.LakesOnline.com
THE MILFORD LAKE WEBSITE

Copyright 2021, Lakes Online
Privacy    |    Legal